| time (UTC) | temp F | wind direction | speed MPH | gust MPH | rain 1hr in | rain 24hr in | rain mn in | humidity % | barometer mb |
| 20260503225005 | 71 | 276 | 12.0 | 20.0 | 0.00 | 0.00 | 0.00 | 20 | 1005.1 |
| 20260503224505 | 71 | 258 | 12.0 | 20.0 | 0.00 | 0.00 | 0.00 | 20 | 1005.2 |
| 20260503224005 | 71 | 272 | 13.0 | 20.0 | 0.00 | 0.00 | 0.00 | 20 | 1005.2 |
| 20260503223506 | 71 | 272 | 9.0 | 21.0 | 0.00 | 0.00 | 0.00 | 20 | 1005.3 |
| 20260503223005 | 71 | 276 | 11.0 | 21.0 | 0.00 | 0.00 | 0.00 | 20 | 1005.3 |
| 20260503222504 | 71 | 291 | 11.0 | 21.0 | 0.00 | 0.00 | 0.00 | 20 | 1005.3 |
| 20260503222005 | 71 | 296 | 11.0 | 20.0 | 0.00 | 0.00 | 0.00 | 19 | 1005.5 |
| 20260503221505 | 70 | 265 | 13.0 | 21.0 | 0.00 | 0.00 | 0.00 | 20 | 1005.5 |
| 20260503221006 | 70 | 258 | 13.0 | 21.0 | 0.00 | 0.00 | 0.00 | 20 | 1005.5 |
| 20260503220005 | 70 | 270 | 12.0 | 18.0 | 0.00 | 0.00 | 0.00 | 20 | 1005.7 |
| 20260503215505 | 70 | 275 | 13.0 | 18.0 | 0.00 | 0.00 | 0.00 | 20 | 1005.8 |
| 20260503214505 | 70 | 287 | 14.0 | 25.0 | 0.00 | 0.00 | 0.00 | 19 | 1005.9 |
| 20260503213005 | 70 | 253 | 14.0 | 24.0 | 0.00 | 0.00 | 0.00 | 22 | 1006.2 |
| 20260503212505 | 70 | 271 | 14.0 | 24.0 | 0.00 | 0.00 | 0.00 | 20 | 1006.3 |
| 20260503212005 | 70 | 287 | 12.0 | 24.0 | 0.00 | 0.00 | 0.00 | 21 | 1006.4 |
| 20260503211505 | 70 | 285 | 17.0 | 24.0 | 0.00 | 0.00 | 0.00 | 21 | 1006.4 |
| 20260503211005 | 70 | 243 | 10.0 | 22.0 | 0.00 | 0.00 | 0.00 | 22 | 1006.4 |
| 20260503210006 | 70 | 272 | 11.0 | 18.0 | 0.00 | 0.00 | 0.00 | 24 | 1006.5 |
| 20260503205505 | 70 | 287 | 12.0 | 20.0 | 0.00 | 0.00 | 0.00 | 24 | 1006.6 |
| 20260503205005 | 70 | 294 | 13.0 | 20.0 | 0.00 | 0.00 | 0.00 | 23 | 1006.7 |
| 20260503204505 | 70 | 288 | 13.0 | 20.0 | 0.00 | 0.00 | 0.00 | 25 | 1006.7 |
| 20260503204005 | 69 | 297 | 12.0 | 20.0 | 0.00 | 0.00 | 0.00 | 25 | 1006.8 |
| 20260503203005 | 69 | 275 | 12.0 | 20.0 | 0.00 | 0.00 | 0.00 | 24 | 1006.9 |
| 20260503202505 | 69 | 241 | 11.0 | 20.0 | 0.00 | 0.00 | 0.00 | 25 | 1007.0 |
| 20260503202005 | 70 | 279 | 14.0 | 20.0 | 0.00 | 0.00 | 0.00 | 25 | 1007.0 |
| 20260503201505 | 69 | 295 | 11.0 | 18.0 | 0.00 | 0.00 | 0.00 | 25 | 1007.1 |
| 20260503201005 | 69 | 299 | 13.0 | 20.0 | 0.00 | 0.00 | 0.00 | 25 | 1007.2 |
| 20260503195505 | 68 | 259 | 13.0 | 25.0 | 0.00 | 0.00 | 0.00 | 26 | 1007.4 |
| 20260503195005 | 68 | 291 | 14.0 | 25.0 | 0.00 | 0.00 | 0.00 | 26 | 1007.4 |
| 20260503194005 | 68 | 288 | 13.0 | 20.0 | 0.00 | 0.00 | 0.00 | 28 | 1007.6 |
| 20260503193504 | 68 | 276 | 10.0 | 20.0 | 0.00 | 0.00 | 0.00 | 29 | 1007.7 |
| 20260503193005 | 67 | 288 | 13.0 | 20.0 | 0.00 | 0.00 | 0.00 | 29 | 1007.8 |
| 20260503192504 | 68 | 305 | 8.0 | 20.0 | 0.00 | 0.00 | 0.00 | 29 | 1007.9 |
| 20260503192005 | 67 | 293 | 12.0 | 20.0 | 0.00 | 0.00 | 0.00 | 29 | 1008.0 |
| 20260503191505 | 67 | 283 | 13.0 | 20.0 | 0.00 | 0.00 | 0.00 | 30 | 1008.2 |
| 20260503185505 | 67 | 261 | 13.0 | 20.0 | 0.00 | 0.00 | 0.00 | 30 | 1008.3 |
| 20260503185005 | 66 | 297 | 13.0 | 20.0 | 0.00 | 0.00 | 0.00 | 29 | 1008.5 |
| 20260503184505 | 66 | 304 | 12.0 | 20.0 | 0.00 | 0.00 | 0.00 | 28 | 1008.6 |
| 20260503183505 | 66 | 289 | 10.0 | 20.0 | 0.00 | 0.00 | 0.00 | 31 | 1008.6 |
| 20260503183005 | 67 | 253 | 15.0 | 21.0 | 0.00 | 0.00 | 0.00 | 31 | 1008.6 |
| 20260503182505 | 66 | 249 | 16.0 | 22.0 | 0.00 | 0.00 | 0.00 | 30 | 1008.7 |
| 20260503182006 | 66 | 290 | 10.0 | 22.0 | 0.00 | 0.00 | 0.00 | 31 | 1008.7 |
| 20260503181505 | 66 | 276 | 14.0 | 21.0 | 0.00 | 0.00 | 0.00 | 30 | 1008.9 |
| 20260503181005 | 66 | 274 | 13.0 | 24.0 | 0.00 | 0.00 | 0.00 | 30 | 1008.9 |
| 20260503180005 | 66 | 292 | 14.0 | 23.0 | 0.00 | 0.00 | 0.00 | 31 | 1009.0 |
| 20260503175505 | 65 | 313 | 13.0 | 23.0 | 0.00 | 0.00 | 0.00 | 31 | 1009.1 |
| 20260503174505 | 64 | 266 | 9.0 | 18.0 | 0.00 | 0.00 | 0.00 | 34 | 1009.2 |
| 20260503174006 | 64 | 251 | 11.0 | 20.0 | 0.00 | 0.00 | 0.00 | 34 | 1009.3 |
| 20260503173505 | 65 | 295 | 13.0 | 20.0 | 0.00 | 0.00 | 0.00 | 33 | 1009.4 |
| 20260503173005 | 64 | 269 | 12.0 | 20.0 | 0.00 | 0.00 | 0.00 | 36 | 1009.3 |
| 20260503172505 | 64 | 274 | 13.0 | 20.0 | 0.00 | 0.00 | 0.00 | 35 | 1009.4 |
| 20260503172005 | 64 | 261 | 12.0 | 17.0 | 0.00 | 0.00 | 0.00 | 36 | 1009.4 |
| 20260503171504 | 63 | 279 | 13.0 | 17.0 | 0.00 | 0.00 | 0.00 | 35 | 1009.5 |
| 20260503171005 | 63 | 266 | 12.0 | 18.0 | 0.00 | 0.00 | 0.00 | 37 | 1009.5 |
| 20260503131005 | 46 | 234 | 5.0 | 6.0 | 0.00 | 0.00 | 0.00 | 67 | 1011.3 |
| 20260503081505 | 48 | 219 | 0.0 | 0.0 | 0.00 | 0.00 | 0.00 | 64 | 1011.0 |
| 20260503081005 | 48 | 220 | 0.0 | 0.0 | 0.00 | 0.00 | 0.00 | 63 | 1011.1 |
| 20260503072504 | 50 | 124 | 9.0 | 13.0 | 0.00 | 0.00 | 0.00 | 57 | 1011.1 |
| 20260503071505 | 50 | 134 | 10.0 | 12.0 | 0.00 | 0.00 | 0.00 | 58 | 1011.1 |
| 20260503071005 | 50 | 136 | 10.0 | 12.0 | 0.00 | 0.00 | 0.00 | 58 | 1011.0 |
| 20260503055004 | 48 | 145 | 6.0 | 7.0 | 0.00 | 0.00 | 0.00 | 61 | 1012.0 |
| 20260503054504 | 49 | 132 | 4.0 | 7.0 | 0.00 | 0.00 | 0.00 | 59 | 1012.0 |
| 20260503054004 | 50 | 95 | 3.0 | 6.0 | 0.00 | 0.00 | 0.00 | 58 | 1012.0 |
| 20260503053505 | 50 | 94 | 4.0 | 6.0 | 0.00 | 0.00 | 0.00 | 59 | 1012.0 |
| 20260503053004 | 49 | 94 | 5.0 | 6.0 | 0.00 | 0.00 | 0.00 | 60 | 1012.0 |
| 20260503052504 | 49 | 98 | 3.0 | 6.0 | 0.00 | 0.00 | 0.00 | 60 | 1012.0 |
| 20260503052005 | 49 | 99 | 4.0 | 7.0 | 0.00 | 0.00 | 0.00 | 60 | 1012.0 |
| 20260503051504 | 49 | 99 | 6.0 | 7.0 | 0.00 | 0.00 | 0.00 | 60 | 1012.0 |
| 20260503051004 | 49 | 100 | 6.0 | 8.0 | 0.00 | 0.00 | 0.00 | 60 | 1012.0 |
| 20260503045504 | 49 | 100 | 7.0 | 9.0 | 0.00 | 0.00 | 0.00 | 61 | 1012.1 |
| 20260503045004 | 49 | 107 | 6.0 | 9.0 | 0.00 | 0.00 | 0.00 | 60 | 1012.1 |
| 20260503044504 | 49 | 119 | 6.0 | 7.0 | 0.00 | 0.00 | 0.00 | 59 | 1012.2 |
| 20260503044005 | 49 | 128 | 5.0 | 7.0 | 0.00 | 0.00 | 0.00 | 59 | 1012.1 |
| 20260503043504 | 49 | 137 | 5.0 | 7.0 | 0.00 | 0.00 | 0.00 | 60 | 1012.1 |
| 20260503042504 | 49 | 127 | 5.0 | 6.0 | 0.00 | 0.00 | 0.00 | 59 | 1012.2 |
| 20260503042004 | 49 | 97 | 1.0 | 3.0 | 0.00 | 0.00 | 0.00 | 59 | 1012.1 |
| 20260503041504 | 50 | 97 | 1.0 | 3.0 | 0.00 | 0.00 | 0.00 | 58 | 1012.0 |
| 20260503041004 | 50 | 97 | 2.0 | 3.0 | 0.00 | 0.00 | 0.00 | 58 | 1012.0 |
| 20260503040004 | 50 | 97 | 4.0 | 6.0 | 0.00 | 0.00 | 0.00 | 58 | 1011.9 |
| 20260503035504 | 51 | 97 | 3.0 | 7.0 | 0.00 | 0.00 | 0.00 | 57 | 1011.8 |
| 20260503035004 | 51 | 96 | 6.0 | 7.0 | 0.00 | 0.00 | 0.00 | 56 | 1011.7 |
| 20260503034504 | 51 | 96 | 6.0 | 7.0 | 0.00 | 0.00 | 0.00 | 55 | 1011.5 |
| 20260503034004 | 52 | 91 | 3.0 | 6.0 | 0.00 | 0.00 | 0.00 | 54 | 1011.6 |
| 20260503033505 | 52 | 91 | 5.0 | 7.0 | 0.00 | 0.00 | 0.00 | 54 | 1011.6 |
| 20260503032504 | 52 | 91 | 4.0 | 7.0 | 0.00 | 0.00 | 0.00 | 54 | 1011.4 |
| 20260503031504 | 53 | 89 | 6.0 | 7.0 | 0.00 | 0.00 | 0.00 | 53 | 1011.2 |
| 20260503030004 | 53 | 87 | 4.0 | 7.0 | 0.00 | 0.00 | 0.00 | 52 | 1011.1 |
| 20260503025505 | 53 | 87 | 4.0 | 7.0 | 0.00 | 0.00 | 0.00 | 52 | 1011.1 |
| 20260503025004 | 53 | 88 | 5.0 | 7.0 | 0.00 | 0.00 | 0.00 | 52 | 1010.9 |
| 20260503024504 | 54 | 89 | 5.0 | 8.0 | 0.00 | 0.00 | 0.00 | 51 | 1010.8 |
| 20260503023504 | 56 | 69 | 6.0 | 8.0 | 0.00 | 0.00 | 0.00 | 48 | 1010.8 |
| 20260503023004 | 56 | 69 | 5.0 | 8.0 | 0.00 | 0.00 | 0.00 | 48 | 1010.7 |
| 20260503021504 | 57 | 85 | 5.0 | 7.0 | 0.00 | 0.00 | 0.00 | 47 | 1010.5 |
| 20260503020004 | 58 | 79 | 7.0 | 9.0 | 0.00 | 0.00 | 0.00 | 46 | 1010.4 |
| 20260503015504 | 58 | 84 | 5.0 | 8.0 | 0.00 | 0.00 | 0.00 | 45 | 1010.5 |
| 20260503015004 | 59 | 76 | 5.0 | 9.0 | 0.00 | 0.00 | 0.00 | 45 | 1010.4 |
| 20260503014504 | 59 | 84 | 5.0 | 12.0 | 0.00 | 0.00 | 0.00 | 45 | 1010.4 |
| 20260503013504 | 60 | 80 | 8.0 | 12.0 | 0.00 | 0.00 | 0.00 | 42 | 1010.3 |
| 20260503013005 | 60 | 76 | 6.0 | 12.0 | 0.00 | 0.00 | 0.00 | 42 | 1010.3 |
| 20260503012004 | 61 | 56 | 7.0 | 12.0 | 0.00 | 0.00 | 0.00 | 41 | 1010.2 |
| 20260503011504 | 61 | 54 | 7.0 | 12.0 | 0.00 | 0.00 | 0.00 | 40 | 1010.1 |
| 20260503011004 | 61 | 52 | 7.0 | 14.0 | 0.00 | 0.00 | 0.00 | 40 | 1010.0 |
| 20260503010004 | 62 | 58 | 10.0 | 15.0 | 0.00 | 0.00 | 0.00 | 39 | 1010.0 |
| 20260503005504 | 62 | 56 | 11.0 | 17.0 | 0.00 | 0.00 | 0.00 | 38 | 1010.0 |
| 20260503005004 | 63 | 53 | 12.0 | 17.0 | 0.00 | 0.00 | 0.00 | 38 | 1009.9 |
| 20260503004504 | 63 | 52 | 8.0 | 13.0 | 0.00 | 0.00 | 0.00 | 38 | 1009.9 |
| 20260503004004 | 64 | 50 | 9.0 | 13.0 | 0.00 | 0.00 | 0.00 | 37 | 1010.0 |
| 20260503003504 | 64 | 31 | 7.0 | 13.0 | 0.00 | 0.00 | 0.00 | 36 | 1010.1 |
| 20260503003005 | 64 | 32 | 7.0 | 12.0 | 0.00 | 0.00 | 0.00 | 36 | 1010.0 |
| 20260503002504 | 64 | 30 | 6.0 | 12.0 | 0.00 | 0.00 | 0.00 | 37 | 1010.0 |
| 20260503002004 | 64 | 48 | 6.0 | 12.0 | 0.00 | 0.00 | 0.00 | 35 | 1009.9 |
| 20260503001504 | 64 | 46 | 7.0 | 13.0 | 0.00 | 0.00 | 0.00 | 35 | 1009.9 |
| 20260503001004 | 65 | 34 | 7.0 | 13.0 | 0.00 | 0.00 | 0.00 | 35 | 1009.9 |
| 20260503000004 | 65 | 25 | 9.0 | 14.0 | 0.00 | 0.00 | 0.00 | 35 | 1009.9 |
| 20260502235504 | 65 | 27 | 9.0 | 15.0 | 0.00 | 0.00 | 0.00 | 35 | 1009.9 |
| 20260502235004 | 65 | 37 | 11.0 | 15.0 | 0.00 | 0.00 | 0.00 | 35 | 1009.9 |
| 20260502233505 | 65 | 36 | 9.0 | 15.0 | 0.00 | 0.00 | 0.00 | 36 | 1009.8 |
| 20260502233005 | 65 | 34 | 11.0 | 20.0 | 0.00 | 0.00 | 0.00 | 34 | 1009.8 |
| 20260502232504 | 65 | 29 | 12.0 | 20.0 | 0.00 | 0.00 | 0.00 | 34 | 1009.8 |
| 20260502232005 | 66 | 53 | 9.0 | 18.0 | 0.00 | 0.00 | 0.00 | 32 | 1009.8 |
| 20260502231506 | 66 | 83 | 9.0 | 13.0 | 0.00 | 0.00 | 0.00 | 32 | 1009.7 |
| 20260502231006 | 66 | 88 | 9.0 | 13.0 | 0.00 | 0.00 | 0.00 | 31 | 1009.6 |
| 20260502230005 | 67 | 88 | 9.0 | 13.0 | 0.00 | 0.00 | 0.00 | 31 | 1009.7 |
| 20260502225505 | 67 | 84 | 9.0 | 13.0 | 0.00 | 0.00 | 0.00 | 32 | 1009.8 |